,,PressureMeas_1m,,PRMeasQMR101_1,,RHStat155_1m_1,,SRMeasQMS101R_1m,,TAStat155_1m_1,,GenWind_1,,GenWind_1,
2017-09-19, 00:00:06,VALID,919.037,VALID,0.0,VALID,86.696,VALID,-0.039,VALID,21.554,VALID,105.0,VALID,0.264,
2017-09-19, 00:01:06,VALID,919.031,VALID,0.0,VALID,87.706,VALID,-0.027,VALID,21.44,VALID,135.0,VALID,0.492,
2017-09-19, 00:02:06,VALID,919.026,VALID,0.0,VALID,87.714,VALID,-0.043,VALID,21.383,VALID,85.0,VALID,0.392,
2017-09-19, 00:03:06,VALID,919.025,VALID,0.0,VALID,88.482,VALID,-0.033,VALID,21.24,VALID,55.0,VALID,0.529,
2017-09-19, 00:04:06,VALID,919.012,VALID,0.0,VALID,89.116,VALID,-0.032,VALID,21.235,VALID,51.0,VALID,0.368,
2017-09-19, 00:05:06,VALID,918.994,VALID,0.0,VALID,88.976,VALID,-0.032,VALID,21.286,VALID,38.0,VALID,0.001,
2017-09-19, 00:06:06,VALID,919.009,VALID,0.0,VALID,88.855,VALID,-0.023,VALID,21.342,VALID,38.0,VALID,0.0,
2017-09-19, 00:07:06,VALID,919.003,VALID,0.0,VALID,88.673,VALID,-0.03,VALID,21.365,VALID,99.0,VALID,0.062,
2017-09-19, 00:08:06,VALID,919.003,VALID,0.0,VALID,88.651,VALID,-0.026,VALID,21.373,VALID,169.0,VALID,0.021,
2017-09-19, 00:09:06,VALID,919.007,VALID,0.0,VALID,88.752,VALID,-0.038,VALID,21.366,VALID,154.0,VALID,0.061,
2017-09-19, 00:10:06,VALID,918.996,VALID,0.0,VALID,88.291,VALID,-0.02,VALID,21.14,VALID,121.0,VALID,0.689,
2017-09-19, 00:11:06,VALID,918.972,VALID,0.0,VALID,90.026,VALID,0.002,VALID,20.974,VALID,149.0,VALID,0.301,
2017-09-19, 00:12:06,VALID,918.95,VALID,0.0,VALID,90.584,VALID,0.013,VALID,20.935,VALID,175.0,VALID,0.012,
2017-09-19, 00:13:06,VALID,918.891,VALID,0.0,VALID,90.641,VALID,0.007,VALID,20.972,VALID,192.0,VALID,0.218,
2017-09-19, 00:14:06,VALID,918.865,VALID,0.0,VALID,90.074,VALID,0.008,VALID,21.079,VALID,201.0,VALID,0.072,
2017-09-19, 00:15:06,VALID,918.833,VALID,0.0,VALID,89.546,VALID,0.002,VALID,21.114,VALID,201.0,VALID,0.0,
2017-09-19, 00:16:06,VALID,918.807,VALID,0.0,VALID,89.571,VALID,0.012,VALID,21.16,VALID,201.0,VALID,0.0,
2017-09-19, 00:17:06,VALID,918.787,VALID,0.0,VALID,88.966,VALID,0.01,VALID,21.243,VALID,204.0,VALID,0.132,
2017-09-19, 00:18:06,VALID,918.791,VALID,0.0,VALID,88.419,VALID,0.008,VALID,21.368,VALID,241.0,VALID,0.48,
2017-09-19, 00:19:06,VALID,918.781,VALID,0.0,VALID,87.375,VALID,0.011,VALID,21.555,VALID,256.0,VALID,0.639,
2017-09-19, 00:20:06,VALID,918.763,VALID,0.0,VALID,86.686,VALID,0.011,VALID,21.691,VALID,254.0,VALID,0.202,
2017-09-19, 00:21:06,VALID,918.749,VALID,0.0,VALID,86.73,VALID,0.008,VALID,21.751,VALID,251.0,VALID,0.018,
2017-09-19, 00:22:06,VALID,918.735,VALID,0.0,VALID,86.579,VALID,0.014,VALID,21.728,VALID,238.0,VALID,0.337,
2017-09-19, 00:23:06,VALID,918.733,VALID,0.0,VALID,86.402,VALID,0.011,VALID,21.736,VALID,232.0,VALID,0.169,
2017-09-19, 00:24:06,VALID,918.729,VALID,0.0,VALID,86.112,VALID,0.013,VALID,21.784,VALID,240.0,VALID,0.267,
2017-09-19, 00:25:06,VALID,918.733,VALID,0.0,VALID,86.414,VALID,0.001,VALID,21.788,VALID,239.0,VALID,0.025,
2017-09-19, 00:26:06,VALID,918.744,VALID,0.0,VALID,86.936,VALID,0.008,VALID,21.713,VALID,198.0,VALID,0.132,
2017-09-19, 00:27:06,VALID,918.748,VALID,0.0,VALID,86.761,VALID,-0.008,VALID,21.639,VALID,181.0,VALID,0.023,
2017-09-19, 00:28:06,VALID,918.761,VALID,0.0,VALID,87.28,VALID,-0.008,VALID,21.533,VALID,181.0,VALID,0.0,
2017-09-19, 00:29:06,VALID,918.754,VALID,0.0,VALID,87.629,VALID,-0.009,VALID,21.431,VALID,185.0,VALID,0.062,
2017-09-19, 00:30:06,VALID,918.738,VALID,0.0,VALID,88.115,VALID,0.009,VALID,21.314,VALID,204.0,VALID,0.093,
2017-09-19, 00:31:06,VALID,918.718,VALID,0.0,VALID,88.564,VALID,0.003,VALID,21.258,VALID,204.0,VALID,0.0,
2017-09-19, 00:32:06,VALID,918.724,VALID,0.0,VALID,88.603,VALID,0.014,VALID,21.221,VALID,204.0,VALID,0.0,
2017-09-19, 00:33:06,VALID,918.734,VALID,0.0,VALID,88.625,VALID,-0.006,VALID,21.058,VALID,125.0,VALID,0.339,
2017-09-19, 00:34:06,VALID,918.742,VALID,0.0,VALID,90.02,VALID,0.0,VALID,20.821,VALID,90.0,VALID,0.68,
2017-09-19, 00:35:06,VALID,918.739,VALID,0.0,VALID,90.793,VALID,0.007,VALID,20.824,VALID,94.0,VALID,0.457,
2017-09-19, 00:36:06,VALID,918.731,VALID,0.0,VALID,89.912,VALID,0.0,VALID,21.012,VALID,90.0,VALID,0.013,
2017-09-19, 00:37:06,VALID,918.707,VALID,0.0,VALID,89.307,VALID,0.009,VALID,21.113,VALID,22.0,VALID,0.11,
2017-09-19, 00:38:06,VALID,918.702,VALID,0.0,VALID,88.85,VALID,0.003,VALID,21.173,VALID,22.0,VALID,0.0,
2017-09-19, 00:39:06,VALID,918.694,VALID,0.0,VALID,88.579,VALID,0.001,VALID,21.225,VALID,22.0,VALID,0.0,
2017-09-19, 00:40:06,VALID,918.695,VALID,0.0,VALID,88.419,VALID,0.004,VALID,21.219,VALID,66.0,VALID,0.281,
2017-09-19, 00:41:06,VALID,918.687,VALID,0.0,VALID,88.144,VALID,0.005,VALID,21.215,VALID,61.0,VALID,1.247,
2017-09-19, 00:42:06,VALID,918.671,VALID,0.0,VALID,86.973,VALID,0.005,VALID,21.396,VALID,61.0,VALID,1.087,
2017-09-19, 00:43:06,VALID,918.662,VALID,0.0,VALID,86.189,VALID,-0.004,VALID,21.573,VALID,47.0,VALID,0.917,
2017-09-19, 00:44:06,VALID,918.651,VALID,0.0,VALID,85.922,VALID,-0.001,VALID,21.643,VALID,22.0,VALID,0.69,
2017-09-19, 00:45:06,VALID,918.666,VALID,0.0,VALID,85.986,VALID,-0.014,VALID,21.629,VALID,41.0,VALID,0.772,
2017-09-19, 00:46:06,VALID,918.662,VALID,0.0,VALID,85.828,VALID,0.01,VALID,21.685,VALID,85.0,VALID,0.895,
2017-09-19, 00:47:06,VALID,918.654,VALID,0.0,VALID,85.172,VALID,0.01,VALID,21.797,VALID,57.0,VALID,1.692,
2017-09-19, 00:48:06,VALID,918.651,VALID,0.0,VALID,84.477,VALID,-0.004,VALID,21.955,VALID,33.0,VALID,0.865,
2017-09-19, 00:49:06,VALID,918.671,VALID,0.0,VALID,84.185,VALID,-0.008,VALID,22.014,VALID,40.0,VALID,0.666,
2017-09-19, 00:50:06,VALID,918.701,VALID,0.0,VALID,84.26,VALID,0.003,VALID,21.977,VALID,46.0,VALID,0.654,
2017-09-19, 00:51:06,VALID,918.711,VALID,0.0,VALID,84.54,VALID,-0.006,VALID,21.917,VALID,53.0,VALID,0.346,
2017-09-19, 00:52:06,VALID,918.726,VALID,0.0,VALID,84.647,VALID,-0.003,VALID,21.89,VALID,79.0,VALID,0.471,
2017-09-19, 00:53:06,VALID,918.756,VALID,0.0,VALID,84.612,VALID,-0.001,VALID,21.913,VALID,66.0,VALID,0.831,
2017-09-19, 00:54:06,VALID,918.763,VALID,0.0,VALID,84.539,VALID,0.004,VALID,21.863,VALID,71.0,VALID,1.05,
2017-09-19, 00:55:06,VALID,918.752,VALID,0.0,VALID,84.297,VALID,-0.008,VALID,21.936,VALID,65.0,VALID,1.191,
2017-09-19, 00:56:06,VALID,918.756,VALID,0.0,VALID,84.076,VALID,0.012,VALID,21.993,VALID,56.0,VALID,1.089,
2017-09-19, 00:57:06,VALID,918.743,VALID,0.0,VALID,83.9,VALID,0.055,VALID,22.036,VALID,54.0,VALID,0.482,
2017-09-19, 00:58:06,VALID,918.735,VALID,0.0,VALID,84.184,VALID,0.056,VALID,22.016,VALID,53.0,VALID,0.581,
2017-09-19, 00:59:06,VALID,918.703,VALID,0.0,VALID,84.222,VALID,0.038,VALID,21.955,VALID,87.0,VALID,1.047,
2017-09-19, 01:00:06,VALID,918.693,VALID,0.0,VALID,84.282,VALID,0.044,VALID,21.961,VALID,93.0,VALID,0.953,
2017-09-19, 01:01:06,VALID,918.65,VALID,0.0,VALID,84.059,VALID,0.054,VALID,22.016,VALID,88.0,VALID,0.952,
2017-09-19, 01:02:06,VALID,918.626,VALID,0.0,VALID,84.397,VALID,0.035,VALID,22.015,VALID,60.0,VALID,0.748,
2017-09-19, 01:03:06,VALID,918.608,VALID,0.0,VALID,84.091,VALID,0.021,VALID,21.962,VALID,76.0,VALID,0.925,
2017-09-19, 01:04:06,VALID,918.587,VALID,0.0,VALID,84.104,VALID,0.04,VALID,22.04,VALID,71.0,VALID,1.669,
2017-09-19, 01:05:06,VALID,918.583,VALID,0.0,VALID,83.078,VALID,0.046,VALID,22.134,VALID,90.0,VALID,2.209,
2017-09-19, 01:06:06,VALID,918.568,VALID,0.0,VALID,82.145,VALID,0.039,VALID,22.375,VALID,88.0,VALID,1.719,
2017-09-19, 01:07:06,VALID,918.572,VALID,0.0,VALID,82.844,VALID,0.052,VALID,22.287,VALID,68.0,VALID,1.779,
2017-09-19, 01:08:06,VALID,918.543,VALID,0.0,VALID,83.096,VALID,0.05,VALID,22.183,VALID,62.0,VALID,1.138,
2017-09-19, 01:09:06,VALID,918.537,VALID,0.0,VALID,83.496,VALID,0.057,VALID,22.137,VALID,66.0,VALID,0.841,
2017-09-19, 01:10:06,VALID,918.528,VALID,0.0,VALID,83.876,VALID,0.049,VALID,22.08,VALID,67.0,VALID,0.766,
2017-09-19, 01:11:06,VALID,918.521,VALID,0.0,VALID,84.104,VALID,0.046,VALID,22.035,VALID,56.0,VALID,0.707,
2017-09-19, 01:12:06,VALID,918.515,VALID,0.0,VALID,83.997,VALID,0.064,VALID,22.045,VALID,70.0,VALID,0.919,
2017-09-19, 01:13:06,VALID,918.517,VALID,0.0,VALID,84.017,VALID,0.055,VALID,22.065,VALID,72.0,VALID,0.973,
2017-09-19, 01:14:06,VALID,918.522,VALID,0.0,VALID,84.276,VALID,0.066,VALID,22.04,VALID,72.0,VALID,1.172,
2017-09-19, 01:15:06,VALID,918.52,VALID,0.0,VALID,84.447,VALID,0.067,VALID,21.974,VALID,72.0,VALID,1.465,
2017-09-19, 01:16:06,VALID,918.501,VALID,0.0,VALID,84.154,VALID,0.06,VALID,22.037,VALID,78.0,VALID,1.036,
2017-09-19, 01:17:06,VALID,918.475,VALID,0.0,VALID,83.296,VALID,0.057,VALID,22.135,VALID,84.0,VALID,1.85,
2017-09-19, 01:18:06,VALID,918.455,VALID,0.0,VALID,83.293,VALID,0.059,VALID,22.224,VALID,74.0,VALID,2.143,
2017-09-19, 01:19:06,VALID,918.43,VALID,0.0,VALID,82.334,VALID,0.056,VALID,22.278,VALID,79.0,VALID,1.951,
2017-09-19, 01:20:06,VALID,918.422,VALID,0.0,VALID,82.742,VALID,0.043,VALID,22.269,VALID,64.0,VALID,1.47,
2017-09-19, 01:21:06,VALID,918.383,VALID,0.0,VALID,81.982,VALID,0.046,VALID,22.26,VALID,60.0,VALID,2.299,
2017-09-19, 01:22:06,VALID,918.386,VALID,0.0,VALID,81.667,VALID,0.057,VALID,22.42,VALID,97.0,VALID,2.289,
2017-09-19, 01:23:06,VALID,918.351,VALID,0.0,VALID,81.755,VALID,0.059,VALID,22.382,VALID,93.0,VALID,2.18,
2017-09-19, 01:24:06,VALID,918.324,VALID,0.0,VALID,82.908,VALID,0.057,VALID,22.242,VALID,79.0,VALID,1.397,
2017-09-19, 01:25:06,VALID,918.287,VALID,0.0,VALID,83.44,VALID,0.065,VALID,22.096,VALID,89.0,VALID,1.204,
2017-09-19, 01:26:06,VALID,918.254,VALID,0.0,VALID,83.163,VALID,0.063,VALID,22.09,VALID,91.0,VALID,2.112,
2017-09-19, 01:27:06,VALID,918.226,VALID,0.0,VALID,82.808,VALID,0.024,VALID,22.232,VALID,66.0,VALID,2.118,
2017-09-19, 01:28:06,VALID,918.215,VALID,0.0,VALID,83.643,VALID,0.02,VALID,22.12,VALID,79.0,VALID,1.251,
2017-09-19, 01:29:06,VALID,918.191,VALID,0.0,VALID,83.855,VALID,0.017,VALID,22.017,VALID,93.0,VALID,1.686,
2017-09-19, 01:30:06,VALID,918.185,VALID,0.0,VALID,84.199,VALID,0.018,VALID,21.985,VALID,82.0,VALID,1.716,
2017-09-19, 01:31:06,VALID,918.157,VALID,0.0,VALID,84.541,VALID,0.038,VALID,21.945,VALID,86.0,VALID,1.906,
2017-09-19, 01:32:06,VALID,918.12,VALID,0.0,VALID,84.759,VALID,0.013,VALID,21.903,VALID,60.0,VALID,2.323,
2017-09-19, 01:33:06,VALID,918.116,VALID,0.0,VALID,84.679,VALID,0.025,VALID,21.968,VALID,55.0,VALID,1.634,
2017-09-19, 01:34:06,VALID,918.116,VALID,0.0,VALID,84.801,VALID,0.031,VALID,21.948,VALID,82.0,VALID,1.979,
2017-09-19, 01:35:06,VALID,918.087,VALID,0.0,VALID,84.489,VALID,0.025,VALID,21.93,VALID,56.0,VALID,2.412,
2017-09-19, 01:36:06,VALID,918.088,VALID,0.0,VALID,84.407,VALID,0.015,VALID,22.004,VALID,82.0,VALID,1.599,
2017-09-19, 01:37:06,VALID,918.083,VALID,0.0,VALID,84.651,VALID,0.003,VALID,21.958,VALID,85.0,VALID,1.736,
2017-09-19, 01:38:06,VALID,918.064,VALID,0.0,VALID,84.825,VALID,0.015,VALID,21.919,VALID,88.0,VALID,1.574,
2017-09-19, 01:39:06,VALID,918.028,VALID,0.0,VALID,85.293,VALID,0.035,VALID,21.841,VALID,75.0,VALID,1.826,
2017-09-19, 01:40:06,VALID,917.996,VALID,0.0,VALID,84.69,VALID,0.015,VALID,21.895,VALID,70.0,VALID,2.558,
2017-09-19, 01:41:06,VALID,917.95,VALID,0.0,VALID,83.52,VALID,0.023,VALID,22.083,VALID,60.0,VALID,3.043,
2017-09-19, 01:42:06,VALID,917.926,VALID,0.0,VALID,82.686,VALID,0.043,VALID,22.183,VALID,68.0,VALID,2.657,
2017-09-19, 01:43:06,VALID,917.902,VALID,0.0,VALID,81.805,VALID,0.054,VALID,22.297,VALID,79.0,VALID,2.484,
2017-09-19, 01:44:06,VALID,917.897,VALID,0.0,VALID,81.917,VALID,0.038,VALID,22.315,VALID,72.0,VALID,1.565,
2017-09-19, 01:45:06,VALID,917.862,VALID,0.0,VALID,82.318,VALID,0.043,VALID,22.237,VALID,71.0,VALID,1.938,
2017-09-19, 01:46:06,VALID,917.868,VALID,0.0,VALID,82.494,VALID,0.034,VALID,22.219,VALID,83.0,VALID,1.853,
2017-09-19, 01:47:06,VALID,917.847,VALID,0.0,VALID,82.776,VALID,0.055,VALID,22.178,VALID,67.0,VALID,1.407,
2017-09-19, 01:48:06,VALID,917.851,VALID,0.0,VALID,83.079,VALID,0.04,VALID,22.114,VALID,67.0,VALID,1.878,
2017-09-19, 01:49:06,VALID,917.849,VALID,0.0,VALID,83.36,VALID,0.041,VALID,22.076,VALID,86.0,VALID,1.355,
2017-09-19, 01:50:06,VALID,917.844,VALID,0.0,VALID,83.453,VALID,0.041,VALID,22.053,VALID,91.0,VALID,1.381,
2017-09-19, 01:51:06,VALID,917.843,VALID,0.0,VALID,83.979,VALID,0.022,VALID,21.989,VALID,107.0,VALID,1.753,
2017-09-19, 01:52:06,VALID,917.828,VALID,0.0,VALID,84.692,VALID,0.038,VALID,21.902,VALID,106.0,VALID,1.943,
2017-09-19, 01:53:06,VALID,917.801,VALID,0.0,VALID,85.385,VALID,0.033,VALID,21.798,VALID,71.0,VALID,1.415,
2017-09-19, 01:54:06,VALID,917.771,VALID,0.0,VALID,85.6,VALID,0.025,VALID,21.723,VALID,68.0,VALID,0.977,
2017-09-19, 01:55:06,VALID,917.748,VALID,0.0,VALID,85.222,VALID,0.03,VALID,21.742,VALID,76.0,VALID,1.361,
2017-09-19, 01:56:06,VALID,917.727,VALID,0.0,VALID,85.098,VALID,0.017,VALID,21.792,VALID,74.0,VALID,2.176,
2017-09-19, 01:57:06,VALID,917.71,VALID,0.0,VALID,84.492,VALID,0.016,VALID,21.89,VALID,83.0,VALID,2.233,
2017-09-19, 01:58:06,VALID,917.67,VALID,0.0,VALID,83.822,VALID,0.029,VALID,22.013,VALID,80.0,VALID,2.597,
2017-09-19, 01:59:06,VALID,917.688,VALID,0.0,VALID,83.645,VALID,0.031,VALID,22.065,VALID,66.0,VALID,1.768,
2017-09-19, 02:00:06,VALID,917.68,VALID,0.0,VALID,83.678,VALID,0.027,VALID,22.035,VALID,71.0,VALID,2.341,
2017-09-19, 02:01:06,VALID,917.661,VALID,0.0,VALID,83.201,VALID,0.03,VALID,22.074,VALID,77.0,VALID,2.017,
2017-09-19, 02:02:06,VALID,917.664,VALID,0.0,VALID,83.137,VALID,0.028,VALID,22.104,VALID,78.0,VALID,1.667,
2017-09-19, 02:03:06,VALID,917.668,VALID,0.0,VALID,83.02,VALID,0.027,VALID,22.115,VALID,82.0,VALID,2.123,
2017-09-19, 02:04:06,VALID,917.665,VALID,0.0,VALID,83.069,VALID,0.015,VALID,22.094,VALID,91.0,VALID,1.551,
2017-09-19, 02:05:06,VALID,917.646,VALID,0.0,VALID,83.344,VALID,0.022,VALID,22.071,VALID,68.0,VALID,1.698,
2017-09-19, 02:06:06,VALID,917.621,VALID,0.0,VALID,84.033,VALID,0.014,VALID,22.016,VALID,52.0,VALID,1.023,
2017-09-19, 02:07:06,VALID,917.609,VALID,0.0,VALID,84.507,VALID,0.009,VALID,21.907,VALID,74.0,VALID,1.202,
2017-09-19, 02:08:06,VALID,917.587,VALID,0.0,VALID,84.315,VALID,0.012,VALID,21.882,VALID,75.0,VALID,1.345,
2017-09-19, 02:09:06,VALID,917.568,VALID,0.0,VALID,84.6,VALID,0.02,VALID,21.879,VALID,74.0,VALID,0.923,
2017-09-19, 02:10:06,VALID,917.54,VALID,0.0,VALID,84.575,VALID,0.003,VALID,21.851,VALID,65.0,VALID,1.106,
2017-09-19, 02:11:06,VALID,917.528,VALID,0.0,VALID,84.796,VALID,0.027,VALID,21.823,VALID,64.0,VALID,1.129,
2017-09-19, 02:12:06,VALID,917.512,VALID,0.0,VALID,84.795,VALID,0.007,VALID,21.806,VALID,82.0,VALID,1.557,
2017-09-19, 02:13:06,VALID,917.499,VALID,0.0,VALID,84.821,VALID,0.008,VALID,21.807,VALID,65.0,VALID,1.218,
2017-09-19, 02:14:06,VALID,917.468,VALID,0.0,VALID,84.816,VALID,0.021,VALID,21.775,VALID,99.0,VALID,1.258,
2017-09-19, 02:15:06,VALID,917.452,VALID,0.0,VALID,84.239,VALID,0.017,VALID,21.833,VALID,89.0,VALID,1.916,
2017-09-19, 02:16:06,VALID,917.401,VALID,0.0,VALID,83.691,VALID,0.011,VALID,21.939,VALID,96.0,VALID,2.117,
2017-09-19, 02:17:06,VALID,917.379,VALID,0.0,VALID,83.855,VALID,0.012,VALID,21.906,VALID,73.0,VALID,1.729,
2017-09-19, 02:18:06,VALID,917.344,VALID,0.0,VALID,83.675,VALID,0.021,VALID,21.908,VALID,87.0,VALID,1.264,
2017-09-19, 02:19:06,VALID,917.349,VALID,0.0,VALID,83.905,VALID,0.021,VALID,21.902,VALID,92.0,VALID,1.06,
2017-09-19, 02:20:06,VALID,917.328,VALID,0.0,VALID,84.432,VALID,0.008,VALID,21.809,VALID,116.0,VALID,1.346,
2017-09-19, 02:21:06,VALID,917.312,VALID,0.0,VALID,85.363,VALID,0.003,VALID,21.653,VALID,106.0,VALID,1.552,
2017-09-19, 02:22:06,VALID,917.296,VALID,0.0,VALID,85.559,VALID,-0.011,VALID,21.596,VALID,114.0,VALID,2.216,
2017-09-19, 02:23:06,VALID,917.267,VALID,0.0,VALID,86.264,VALID,0.0,VALID,21.545,VALID,133.0,VALID,2.031,
2017-09-19, 02:24:06,VALID,917.259,VALID,0.0,VALID,86.858,VALID,0.012,VALID,21.489,VALID,111.0,VALID,1.755,
2017-09-19, 02:25:06,VALID,917.266,VALID,0.0,VALID,87.622,VALID,-0.003,VALID,21.357,VALID,115.0,VALID,2.054,
2017-09-19, 02:26:06,VALID,917.255,VALID,0.0,VALID,88.382,VALID,0.008,VALID,21.224,VALID,126.0,VALID,2.571,
2017-09-19, 02:27:06,VALID,917.238,VALID,0.0,VALID,89.182,VALID,0.014,VALID,21.121,VALID,129.0,VALID,2.043,
2017-09-19, 02:28:06,VALID,917.236,VALID,0.0,VALID,89.674,VALID,0.022,VALID,21.054,VALID,122.0,VALID,2.021,
2017-09-19, 02:29:06,VALID,917.234,VALID,0.0,VALID,89.953,VALID,0.024,VALID,21.028,VALID,127.0,VALID,2.644,
2017-09-19, 02:30:06,VALID,917.236,VALID,0.0,VALID,90.156,VALID,0.027,VALID,20.967,VALID,132.0,VALID,2.314,
2017-09-19, 02:31:06,VALID,917.22,VALID,0.0,VALID,90.568,VALID,0.019,VALID,20.923,VALID,144.0,VALID,1.775,
2017-09-19, 02:32:06,VALID,917.237,VALID,0.0,VALID,90.752,VALID,0.008,VALID,20.923,VALID,139.0,VALID,2.19,
2017-09-19, 02:33:06,VALID,917.253,VALID,0.0,VALID,90.752,VALID,0.011,VALID,20.89,VALID,127.0,VALID,2.28,
2017-09-19, 02:34:06,VALID,917.268,VALID,0.0,VALID,90.509,VALID,0.01,VALID,20.939,VALID,130.0,VALID,2.015,
2017-09-19, 02:35:06,VALID,917.255,VALID,0.0,VALID,90.056,VALID,0.012,VALID,21.01,VALID,118.0,VALID,2.122,
2017-09-19, 02:36:06,VALID,917.28,VALID,0.0,VALID,89.475,VALID,0.039,VALID,21.114,VALID,116.0,VALID,1.675,
2017-09-19, 02:37:06,VALID,917.289,VALID,0.0,VALID,89.489,VALID,0.021,VALID,21.07,VALID,126.0,VALID,1.56,
2017-09-19, 02:38:06,VALID,917.282,VALID,0.0,VALID,89.268,VALID,0.027,VALID,21.113,VALID,127.0,VALID,2.875,
2017-09-19, 02:39:06,VALID,917.273,VALID,0.0,VALID,88.703,VALID,0.036,VALID,21.264,VALID,110.0,VALID,1.919,
2017-09-19, 02:40:06,VALID,917.246,VALID,0.0,VALID,88.411,VALID,0.031,VALID,21.308,VALID,96.0,VALID,2.478,
2017-09-19, 02:41:06,VALID,917.252,VALID,0.0,VALID,88.293,VALID,0.025,VALID,21.301,VALID,101.0,VALID,1.696,
2017-09-19, 02:42:06,VALID,917.256,VALID,0.0,VALID,88.722,VALID,0.005,VALID,21.195,VALID,118.0,VALID,1.304,
2017-09-19, 02:43:06,VALID,917.252,VALID,0.0,VALID,89.178,VALID,0.009,VALID,21.109,VALID,121.0,VALID,0.879,
2017-09-19, 02:44:06,VALID,917.265,VALID,0.0,VALID,89.41,VALID,0.018,VALID,21.055,VALID,117.0,VALID,1.63,
2017-09-19, 02:45:06,VALID,917.26,VALID,0.0,VALID,89.495,VALID,0.004,VALID,21.075,VALID,125.0,VALID,1.739,
2017-09-19, 02:46:06,VALID,917.255,VALID,0.0,VALID,89.298,VALID,0.005,VALID,21.133,VALID,121.0,VALID,1.998,
2017-09-19, 02:47:06,VALID,917.25,VALID,0.0,VALID,88.88,VALID,0.005,VALID,21.261,VALID,105.0,VALID,2.806,
2017-09-19, 02:48:06,VALID,917.232,VALID,0.0,VALID,88.408,VALID,0.008,VALID,21.366,VALID,113.0,VALID,1.798,
2017-09-19, 02:49:06,VALID,917.212,VALID,0.0,VALID,88.396,VALID,0.007,VALID,21.332,VALID,119.0,VALID,1.059,
2017-09-19, 02:50:06,VALID,917.205,VALID,0.0,VALID,88.608,VALID,0.009,VALID,21.273,VALID,117.0,VALID,0.958,
2017-09-19, 02:51:06,VALID,917.186,VALID,0.0,VALID,88.865,VALID,0.008,VALID,21.165,VALID,124.0,VALID,1.031,
2017-09-19, 02:52:06,VALID,917.178,VALID,0.0,VALID,89.345,VALID,0.014,VALID,21.1,VALID,138.0,VALID,1.04,
2017-09-19, 02:53:06,VALID,917.178,VALID,0.0,VALID,89.424,VALID,0.006,VALID,21.089,VALID,119.0,VALID,1.735,
2017-09-19, 02:54:06,VALID,917.186,VALID,0.0,VALID,89.212,VALID,0.011,VALID,21.13,VALID,108.0,VALID,1.033,
2017-09-19, 02:55:06,VALID,917.179,VALID,0.0,VALID,89.54,VALID,0.0,VALID,21.077,VALID,117.0,VALID,1.385,
2017-09-19, 02:56:06,VALID,917.186,VALID,0.0,VALID,89.586,VALID,0.003,VALID,21.114,VALID,119.0,VALID,1.388,
2017-09-19, 02:57:06,VALID,917.185,VALID,0.0,VALID,89.382,VALID,-0.023,VALID,21.129,VALID,121.0,VALID,0.973,
2017-09-19, 02:58:06,VALID,917.193,VALID,0.0,VALID,89.446,VALID,-0.014,VALID,21.093,VALID,126.0,VALID,0.507,
2017-09-19, 02:59:06,VALID,917.207,VALID,0.0,VALID,89.502,VALID,-0.013,VALID,21.09,VALID,122.0,VALID,0.451,
2017-09-19, 03:00:06,VALID,917.212,VALID,0.0,VALID,89.544,VALID,-0.004,VALID,21.054,VALID,120.0,VALID,0.338,
2017-09-19, 03:01:06,VALID,917.208,VALID,0.0,VALID,89.75,VALID,-0.001,VALID,20.99,VALID,94.0,VALID,0.261,
2017-09-19, 03:02:06,VALID,917.21,VALID,0.0,VALID,89.928,VALID,-0.004,VALID,20.914,VALID,118.0,VALID,0.703,
2017-09-19, 03:03:06,VALID,917.206,VALID,0.0,VALID,90.317,VALID,-0.004,VALID,20.813,VALID,98.0,VALID,0.904,
2017-09-19, 03:04:06,VALID,917.201,VALID,0.0,VALID,90.547,VALID,0.015,VALID,20.885,VALID,102.0,VALID,0.662,
2017-09-19, 03:05:06,VALID,917.209,VALID,0.0,VALID,90.262,VALID,0.008,VALID,20.938,VALID,135.0,VALID,0.717,
2017-09-19, 03:06:06,VALID,917.199,VALID,0.0,VALID,90.33,VALID,0.001,VALID,20.906,VALID,142.0,VALID,0.709,
2017-09-19, 03:07:06,VALID,917.202,VALID,0.0,VALID,90.647,VALID,0.013,VALID,20.844,VALID,138.0,VALID,1.129,
2017-09-19, 03:08:06,VALID,917.23,VALID,0.0,VALID,90.833,VALID,0.013,VALID,20.782,VALID,128.0,VALID,1.439,
2017-09-19, 03:09:06,VALID,917.242,VALID,0.0,VALID,91.294,VALID,0.009,VALID,20.744,VALID,119.0,VALID,1.755,
2017-09-19, 03:10:06,VALID,917.242,VALID,0.0,VALID,91.464,VALID,-0.012,VALID,20.791,VALID,115.0,VALID,1.1,
2017-09-19, 03:11:06,VALID,917.248,VALID,0.0,VALID,91.317,VALID,-0.004,VALID,20.785,VALID,93.0,VALID,0.71,
2017-09-19, 03:12:06,VALID,917.253,VALID,0.0,VALID,91.521,VALID,-0.009,VALID,20.738,VALID,108.0,VALID,1.029,
2017-09-19, 03:13:06,VALID,917.247,VALID,0.0,VALID,91.71,VALID,-0.014,VALID,20.763,VALID,128.0,VALID,0.991,
2017-09-19, 03:14:06,VALID,917.243,VALID,0.0,VALID,91.642,VALID,-0.023,VALID,20.798,VALID,119.0,VALID,1.189,
2017-09-19, 03:15:06,VALID,917.242,VALID,0.0,VALID,91.391,VALID,-0.015,VALID,20.806,VALID,118.0,VALID,1.018,
2017-09-19, 03:16:06,VALID,917.245,VALID,0.0,VALID,91.576,VALID,-0.022,VALID,20.78,VALID,119.0,VALID,1.341,
2017-09-19, 03:17:06,VALID,917.24,VALID,0.0,VALID,91.678,VALID,-0.026,VALID,20.782,VALID,116.0,VALID,1.229,
2017-09-19, 03:18:06,VALID,917.229,VALID,0.0,VALID,91.68,VALID,-0.021,VALID,20.787,VALID,110.0,VALID,1.345,
2017-09-19, 03:19:06,VALID,917.221,VALID,0.0,VALID,91.623,VALID,-0.024,VALID,20.778,VALID,100.0,VALID,1.193,
2017-09-19, 03:20:06,VALID,917.22,VALID,0.0,VALID,91.737,VALID,-0.029,VALID,20.775,VALID,107.0,VALID,1.409,
2017-09-19, 03:21:06,VALID,917.235,VALID,0.0,VALID,91.746,VALID,-0.025,VALID,20.78,VALID,107.0,VALID,1.261,
2017-09-19, 03:22:06,VALID,917.243,VALID,0.0,VALID,91.876,VALID,-0.028,VALID,20.757,VALID,110.0,VALID,1.286,
2017-09-19, 03:23:06,VALID,917.254,VALID,0.0,VALID,92.098,VALID,-0.036,VALID,20.752,VALID,120.0,VALID,1.508,
2017-09-19, 03:24:06,VALID,917.243,VALID,0.0,VALID,91.979,VALID,-0.023,VALID,20.82,VALID,132.0,VALID,2.523,
2017-09-19, 03:25:06,VALID,917.242,VALID,0.0,VALID,91.464,VALID,-0.022,VALID,20.95,VALID,139.0,VALID,2.348,
2017-09-19, 03:26:06,VALID,917.261,VALID,0.0,VALID,90.604,VALID,-0.005,VALID,21.088,VALID,121.0,VALID,2.547,
2017-09-19, 03:27:06,VALID,917.267,VALID,0.0,VALID,90.199,VALID,0.012,VALID,21.164,VALID,133.0,VALID,1.698,
2017-09-19, 03:28:06,VALID,917.247,VALID,0.0,VALID,90.013,VALID,0.008,VALID,21.174,VALID,118.0,VALID,2.044,
2017-09-19, 03:29:06,VALID,917.235,VALID,0.0,VALID,89.912,VALID,0.005,VALID,21.179,VALID,113.0,VALID,2.055,
2017-09-19, 03:30:06,VALID,917.203,VALID,0.0,VALID,89.972,VALID,0.002,VALID,21.154,VALID,118.0,VALID,1.397,
2017-09-19, 03:31:06,VALID,917.184,VALID,0.0,VALID,90.152,VALID,-0.015,VALID,21.129,VALID,119.0,VALID,1.891,
2017-09-19, 03:32:06,VALID,917.188,VALID,0.0,VALID,90.201,VALID,-0.006,VALID,21.121,VALID,119.0,VALID,2.448,
2017-09-19, 03:33:06,VALID,917.188,VALID,0.0,VALID,90.053,VALID,-0.009,VALID,21.166,VALID,109.0,VALID,2.281,
2017-09-19, 03:34:06,VALID,917.195,VALID,0.0,VALID,89.919,VALID,-0.001,VALID,21.193,VALID,107.0,VALID,2.051,
2017-09-19, 03:35:06,VALID,917.19,VALID,0.0,VALID,89.794,VALID,-0.003,VALID,21.201,VALID,112.0,VALID,2.497,
2017-09-19, 03:36:06,VALID,917.203,VALID,0.0,VALID,89.643,VALID,0.001,VALID,21.24,VALID,109.0,VALID,2.189,
2017-09-19, 03:37:06,VALID,917.217,VALID,0.0,VALID,89.55,VALID,0.006,VALID,21.243,VALID,110.0,VALID,2.05,
2017-09-19, 03:38:06,VALID,917.221,VALID,0.0,VALID,89.745,VALID,-0.015,VALID,21.211,VALID,108.0,VALID,2.465,
2017-09-19, 03:39:06,VALID,917.204,VALID,0.0,VALID,89.591,VALID,-0.007,VALID,21.24,VALID,116.0,VALID,2.179,